Location: Campbell Hill
(37.9301°N, 89.5490°W)
Time: 10:30:30
(UTC+00:00)

Cosmos 1340 Rocket - Pass Details

Date: 07 November 2025
Orbit: 486 x 519 km, 81.2° (Epoch: 07 December)

Event Time Altitude Azimuth Distance (km) Brightness Sun altitude
Rises 23:22:10 0° 187° (S) 2,625 6.6 -6.3°
Reaches altitude 10° 23:24:17 10° 187° (S) 1,745 5.7 -6.7°
Maximum altitude 23:28:07 87° 100° (E) 527 2.7 -7.5°
Drops below altitude 10° 23:32:01 10° 10° (N) 1,763 5.2 -8.2°
Sets 23:34:10 0° 10° (N) 2,654 6.1 -8.6°
